User: anonymous   Login
Location: Columbia
(38.9520°N, 92.3340°W)
Time: 19:41:37
(UTC-06:00)
Language:

CZ-2C R/B - Orbit

View from above orbital plane
View from above orbital plane
View from above satellite
View from above satellite

Ground track
Ground track

The orbit data is extracted from the following two-line orbital elements,

1 28480U 04046B   17050.54318700  .00000018  00000-0  22490-4 0  9997
2 28480  98.1923 154.3451 0141549 211.3200 212.0021 14.25626724637476
Epoch (UTC): 19 February 2017 13:02:11
Eccentricity: 0.0141549
inclination: 98.1923°
perigee height: 704 km
apogee height: 908 km
right ascension of ascending node: 154.3451°
argument of perigee: 211.3200°
revolutions per day: 14.25626724
mean anomaly at epoch: 212.0021°
orbit number at epoch: 63747

The dashed part of the orbit path shows where the satellite is in the earth's shadow,  

DLR